Flag for U.S.A. Weather past 2 weeks in Laredo, Texas, U.S.A.

Now
89 °F

Sunny.


Feels Like: 86 °F
Forecast: 70 / 88 °F
Wind: 12 mph from North

Location: Laredo International Airport

Current Time: Apr 27, 2015 at 5:39:22 PM

Latest Report: Apr 27, 2015 at 4:56 PM


Visibility: 10 mi

Pressure: 29.63 "Hg

Humidity: 23%

Dew point: 47 °F

Location of LaredoLocation

Historic Weather in Laredo — Graph

°F

Laredo temperature yesterday

Maximum temperature yesterday: 94 °F (at 4:56 PM)
Minimum temperature yesterday: 74 °F (at 3:56 AM)
Average temperature yesterday: 82 °F

Past Weeks' High & Low Weather Summary

 TemperatureHumidityPressure
High94 °F (Apr 26, 4:56 PM)100% (Apr 12, 11:04 PM)30.10 "Hg (Apr 12, 11:04 PM)
Low62 °F (Apr 13, 5:56 AM)23% (Apr 27, 2:56 PM)29.46 "Hg (Apr 27, 1:56 AM)
Average75 °F79%29.82 "Hg
* Reported Apr 12 3:56 PM — Apr 27 3:56 PM, Laredo, Weather by CustomWeather, © 2015

Note: Actual official high and low records may vary slightly from our data, if they occured in-between our weather recording intervals... More about our weather records

Advertising

Laredo weather history for previous 24 hours

 ConditionsComfort  
Time TempWeatherWind HumidityBarometerVisibility
3:56 PM
Mon, Apr 27
89 °FSunny.9 mph23%29.65 "Hg10 mi
2:56 PM88 °FSunny.13 mph23%29.67 "Hg10 mi
1:56 PM87 °FSunny.15 mph24%29.68 "Hg10 mi
12:56 PM85 °FSunny.13 mph28%29.70 "Hg10 mi
11:56 AM82 °FSunny.13 mph33%29.72 "Hg10 mi
10:56 AM78 °FSunny.13 mph39%29.72 "Hg10 mi
9:56 AM73 °FSunny.10 mph45%29.72 "Hg9 mi
8:56 AM71 °FSunny.16 mph48%29.70 "Hg10 mi
7:56 AM69 °FClear.15 mph49%29.67 "Hg10 mi
6:56 AM69 °FClear.13 mph51%29.65 "Hg10 mi
5:56 AM70 °FClear.13 mph57%29.62 "Hg10 mi
4:56 AM72 °FPassing clouds.17 mph71%29.57 "Hg10 mi
3:56 AM76 °FThunderstorms. Fog.24 mph90%29.52 "Hg6 mi
2:56 AM79 °FFog.12 mph94%29.51 "Hg4 mi
1:56 AM79 °FFog.8 mph94%29.46 "Hg4 mi
12:56 AM80 °FFog.14 mph88%29.46 "Hg5 mi
11:56 PM
Sun, Apr 26
81 °FClear.15 mph85%29.47 "Hg6 mi
10:56 PM82 °FClear.13 mph79%29.48 "Hg7 mi
9:56 PM84 °FClear.14 mph72%29.49 "Hg9 mi
8:56 PM84 °FSunny.10 mph68%29.50 "Hg10 mi
7:56 PM87 °FSunny.10 mph63%29.49 "Hg9 mi
6:56 PM90 °FSunny.12 mph57%29.48 "Hg10 mi
5:56 PM92 °FSunny.10 mph47%29.47 "Hg10 mi
Weather by CustomWeather, © 2015

See weather overviewHow to use our weather pages